Location: Newark
(33.2404°N, 35.6778°E)
Time: 08:29:50
(UTC+00:00)

N. Korean satellite - Visible Passes

Search period start: 18 January 2020 00:00
Search period end: 28 January 2020 00:00
Orbit: 454 x 508 km, 97.2° (Epoch: 17 January)

Date Brightness Start Highest point End Pass type
(mag) Time Alt. Az. Time Alt. Az. Time Alt. Az.
18 Jan 9.6 02:32:38 10° NE 02:34:52 16° E 02:37:07 10° SE visible
18 Jan 7.8 04:05:25 10° NNW 04:08:10 21° WNW 04:10:56 10° SW visible
19 Jan 6.7 03:39:22 10° N 03:42:48 49° WNW 03:46:15 10° SSW visible
19 Jan 10.1 15:46:06 10° WSW 15:47:23 12° W 15:48:41 10° WNW visible
20 Jan 6.9 03:13:49 10° NNE 03:17:21 66° E 03:20:55 10° S visible
20 Jan 9.1 15:18:50 10° SSW 15:21:46 26° W 15:24:42 10° NW visible
21 Jan 8.8 02:48:45 10° NE 02:51:50 27° E 02:54:56 10° SSE visible
22 Jan 10.0 02:24:39 10° ENE 02:26:14 12° E 02:27:50 10° ESE visible
22 Jan 7.4 03:56:32 10° NNW 03:59:37 28° WNW 04:02:44 10° SW visible
23 Jan 6.4 03:30:40 10° N 03:34:13 67° WNW 03:37:48 10° SSW visible
23 Jan 9.8 15:36:38 10° SW 15:38:43 15° W 15:40:48 10° WNW visible
24 Jan 7.5 03:05:16 10° NNE 03:08:44 48° E 03:12:16 10° S visible
25 Jan 9.2 02:40:23 10° NE 02:43:12 21° E 02:46:02 10° SSE visible
26 Jan 7.1 03:47:42 10° N 03:51:02 37° WNW 03:54:25 10° SW visible
27 Jan 6.5 03:22:00 10° N 03:25:37 90° WSW 03:29:16 10° SSW visible
27 Jan 9.6 15:27:28 10° SW 15:30:01 20° W 15:32:36 10° NW visible
